Awendaw, SC

7:16 AM EDT on August 30, 2016 (GMT -0400)
Mount Pleasant

Weather History for KLRO - December, 2012

Change the Weather History Date:

Sunday, December 30, 2012

  Actual Average (KCHS) Record (KCHS)
Temperature  
Mean Temperature 42 °F 48 °F  
Max Temperature 51 °F 59 °F 82 °F (2015)
Min Temperature 32 °F 38 °F 23 °F (1961)
Degree Days  
Heating Degree Days 24 17  
Month to date heating degree days 430  
Since 1 July heating degree days 722  
Cooling Degree Days 0 0  
Month to date cooling degree days 0  
Year to date cooling degree days 2297  
Moisture  
Dew Point 29 °F    
Average Humidity 65    
Maximum Humidity 100    
Minimum Humidity 33    
Precipitation  
Precipitation 0.00 in 0.11 in 1.34 in (1977)
Month to date precipitation 3.00  
Year to date precipitation 50.92  
Sea Level Pressure  
Sea Level Pressure 30.37 in    
Wind  
Wind Speed 7 mph (NNW)    
Max Wind Speed 13 mph    
Max Gust Speed 21 mph    
Visibility 10 miles    
Events      
T = Trace of Precipitation, MM = Missing Value Source: NWS Daily Summary

Daily Weather History Graph

Daily Weather History Graph

Search for Another Location

Airport or City:

Trip Planner

Search our weather history database for the weather conditions in past years. The results will help you decide how hot, cold, wet, or windy it might be!

Date:

Astronomy

Dec. 30, 2012 Rise Set
Actual Time 7:21 AM EST 5:22 PM EST
Civil Twilight 6:54 AM EST 5:49 PM EST
Nautical Twilight 6:23 AM EST 6:20 PM EST
Astronomical Twilight 5:53 AM EST 6:50 PM EST
Moon 7:43 PM EST 8:36 AM EST
Length of Visible Light 10h 55m
Length of Day
10h 01m
Waning Gibbous, 95% of the Moon is Illuminated
Dec 30
Waning Gibbous
Jan 4
Last Quarter
Jan 11
New
Jan 18
First Quarter
Jan 26
Full

Hourly Weather History & Observations

Time (EST) Temp. Windchill Dew Point Humidity Pressure Visibility Wind Dir Wind Speed Gust Speed Precip Events Conditions
12:15 AM 42.8 °F 37.0 °F 32.0 °F 66% 30.07 in 10.0 mi WNW 10.4 mph 18.4 mph N/A   Clear
12:35 AM 42.8 °F 36.6 °F 32.0 °F 66% 30.07 in 10.0 mi WNW 11.5 mph 20.7 mph N/A   Clear
12:55 AM 42.8 °F 36.6 °F 32.0 °F 66% 30.08 in 10.0 mi WNW 11.5 mph 17.3 mph N/A   Clear
8:35 AM 37.4 °F 32.1 °F 30.2 °F 75% 30.33 in 10.0 mi NW 6.9 mph - N/A   Clear
8:55 AM 37.4 °F 32.1 °F 30.2 °F 75% 30.34 in 10.0 mi NW 6.9 mph - N/A   Clear
9:15 AM 39.2 °F 33.6 °F 30.2 °F 70% 30.35 in 10.0 mi NW 8.1 mph - N/A   Clear
9:35 AM 41.0 °F 34.7 °F 30.2 °F 65% 30.36 in 10.0 mi NNW 10.4 mph - N/A   Clear
9:55 AM 42.8 °F 38.6 °F 30.2 °F 61% 30.37 in 10.0 mi NNW 6.9 mph - N/A   Clear
10:15 AM 42.8 °F 40.1 °F 28.4 °F 57% 30.37 in 10.0 mi North 4.6 mph 16.1 mph N/A   Clear
10:35 AM 44.6 °F 38.4 °F 26.6 °F 49% 30.38 in 10.0 mi NNW 12.7 mph 16.1 mph N/A   Clear
10:55 AM 44.6 °F 38.4 °F 26.6 °F 49% 30.38 in 10.0 mi North 12.7 mph 17.3 mph N/A   Clear
11:15 AM 46.4 °F 42.9 °F 26.6 °F 46% 30.38 in 10.0 mi North 6.9 mph - N/A   Clear
11:35 AM 46.4 °F 42.9 °F 26.6 °F 46% 30.37 in 10.0 mi North 6.9 mph - N/A   Clear
11:55 AM 48.2 °F - 26.6 °F 43% 30.36 in 10.0 mi North 9.2 mph - N/A   Clear
12:15 PM 48.2 °F - 24.8 °F 40% 30.36 in 10.0 mi NNW 10.4 mph - N/A   Clear
12:35 PM 48.2 °F - 26.6 °F 43% 30.35 in 10.0 mi NNW 8.1 mph - N/A   Clear
12:55 PM 50.0 °F - 24.8 °F 37% 30.35 in 10.0 mi North 8.1 mph - N/A   Clear
1:15 PM 50.0 °F - 23.0 °F 35% 30.34 in 10.0 mi North 9.2 mph - N/A   Clear
1:35 PM 51.8 °F - 24.8 °F 35% 30.34 in 10.0 mi NNW 8.1 mph - N/A   Clear
1:55 PM 51.8 °F - 24.8 °F 35% 30.34 in 10.0 mi North 5.8 mph - N/A   Clear
2:15 PM 51.8 °F - 23.0 °F 33% 30.34 in 10.0 mi NW 10.4 mph - N/A   Clear
2:35 PM 51.8 °F - 24.8 °F 35% 30.34 in 10.0 mi NNW 10.4 mph - N/A   Clear
2:55 PM 51.8 °F - 24.8 °F 35% 30.35 in 10.0 mi NNW 9.2 mph - N/A   Clear
3:15 PM 51.8 °F - 23.0 °F 33% 30.36 in 10.0 mi NNW 6.9 mph - N/A   Clear
3:35 PM 51.8 °F - 24.8 °F 35% 30.36 in 10.0 mi North 6.9 mph - N/A   Clear
3:55 PM 51.8 °F - 26.6 °F 38% 30.36 in 10.0 mi NW 6.9 mph - N/A   Clear
4:15 PM 51.8 °F - 26.6 °F 38% 30.37 in 10.0 mi NNW 8.1 mph - N/A   Clear
4:35 PM 50.0 °F - 26.6 °F 40% 30.38 in 10.0 mi NW 9.2 mph - N/A   Clear
4:55 PM 48.2 °F - 26.6 °F 43% 30.38 in 10.0 mi NNW 6.9 mph - N/A   Clear
5:15 PM 46.4 °F 44.3 °F 28.4 °F 50% 30.38 in 10.0 mi NNW 4.6 mph - N/A   Clear
5:35 PM 44.6 °F - 30.2 °F 57% 30.38 in 10.0 mi Calm Calm - N/A   Clear
5:55 PM 42.8 °F - 30.2 °F 61% 30.39 in 10.0 mi Calm Calm - N/A   Clear
6:15 PM 39.2 °F - 32.0 °F 75% 30.39 in 10.0 mi Calm Calm - N/A   Clear
6:35 PM 37.4 °F - 32.0 °F 81% 30.40 in 10.0 mi Calm Calm - N/A   Clear
6:55 PM 37.4 °F - 32.0 °F 81% 30.40 in 10.0 mi Calm Calm - N/A   Clear
7:15 PM 35.6 °F - 32.0 °F 87% 30.41 in 10.0 mi Calm Calm - N/A   Clear
7:35 PM 35.6 °F - 32.0 °F 87% 30.42 in 10.0 mi Calm Calm - N/A   Clear
7:55 PM 33.8 °F - 32.0 °F 93% 30.43 in 10.0 mi Calm Calm - N/A   Clear
8:15 PM 33.8 °F - 32.0 °F 93% 30.43 in 10.0 mi Calm Calm - N/A   Clear
8:35 PM 33.8 °F - 32.0 °F 93% 30.43 in 10.0 mi Calm Calm - N/A   Clear
8:55 PM 33.8 °F - 32.0 °F 93% 30.43 in 10.0 mi Calm Calm - N/A   Clear
9:15 PM 32.0 °F - 32.0 °F 100% 30.44 in 10.0 mi Calm Calm - N/A   Clear
9:35 PM 32.0 °F - 32.0 °F 100% 30.44 in 10.0 mi Calm Calm - N/A   Clear
9:55 PM 32.0 °F - 32.0 °F 100% 30.45 in 10.0 mi Calm Calm - N/A   Clear
10:15 PM 32.0 °F - 32.0 °F 100% 30.44 in 10.0 mi Calm Calm - N/A   Clear
10:35 PM 32.0 °F - 32.0 °F 100% 30.43 in 9.0 mi Calm Calm - N/A   Clear
10:55 PM 32.0 °F - 32.0 °F 100% 30.43 in 7.0 mi Calm Calm - N/A   Clear
11:15 PM 32.0 °F - 32.0 °F 100% 30.42 in 8.0 mi Calm Calm - N/A   Clear
11:35 PM 32.0 °F - 30.2 °F 93% 30.42 in 7.0 mi Calm Calm - N/A   Clear
11:55 PM 32.0 °F - 30.2 °F 93% 30.41 in 6.0 mi Calm Calm - N/A   Clear